Theta_e
311 310 309 310 302 300 300 301 301 300 299 298 298 298 299 299 299 299 300 301 304 309 309 309 309 311 313 313 319 317 324 326 328 328 327 327 326 327 328 329 330 331 330 330 333 332 334 340 336 336 345 342 340 339
311 310 309 309 302 300 300 300 301 301 300 298 298 298 299 298 299 299 301 299 300 303 309 305 305 305 307 308 309 315 320 322 320 329 328 329 328 327 331 327 329 330 335 330 333 333 341 343 343 343 346 346 343 341
311 311 309 309 302 300 300 300 300 302 301 299 297 298 298 298 298 299 299 299 301 307 309 310 314 313 309 308 310 314 316 314 315 315 324 327 331 328 328 330 331 333 333 333 334 339 341 343 343 344 346 346 342 341
310 310 309 309 301 300 300 300 301 302 302 300 298 298 298 298 298 298 300 300 303 308 310 314 312 313 312 311 309 311 311 310 309 314 321 326 327 323 326 327 329 331 333 337 335 338 338 341 343 344 346 345 343 340
310 310 310 306 300 300 300 300 301 302 302 301 298 297 297 297 297 300 302 304 306 309 312 311 311 313 314 312 310 311 312 313 313 314 319 324 322 324 324 325 325 329 333 331 335 339 340 342 342 344 345 344 344 342
309 309 309 303 300 300 300 300 301 302 303 301 299 297 297 297 297 303 309 306 306 308 311 312 312 314 316 313 312 314 315 314 314 313 314 318 319 321 324 324 329 331 333 333 336 337 339 340 340 341 343 343 342 341
309 308 305 301 300 300 300 301 301 302 300 301 299 297 297 297 297 303 308 310 308 307 311 312 313 316 316 315 315 315 313 313 312 313 312 314 318 318 322 323 324 330 330 332 333 335 334 336 336 337 339 338 337 336
304 304 304 304 301 300 300 301 302 301 301 299 298 297 297 297 297 300 308 307 306 306 309 313 314 317 317 316 316 316 315 314 313 313 313 312 313 316 318 318 323 324 324 325 329 333 331 333 334 334 334 334 334 334
305 306 305 303 302 300 301 302 300 300 300 298 297 297 296 298 306 308 303 306 305 307 312 312 314 318 317 317 317 317 316 317 314 314 313 314 314 315 315 318 319 323 324 324 323 326 328 332 332 332 331 327 327 326
305 304 303 302 302 302 302 299 299 299 299 296 296 303 305 306 307 306 307 310 310 309 308 311 312 318 318 319 319 318 318 319 319 317 316 315 315 316 318 321 322 322 323 323 322 321 324 330 331 329 328 327 326 325
302 302 302 301 302 300 299 299 299 300 297 296 302 307 307 308 309 309 310 310 310 311 309 309 310 313 316 320 319 318 320 320 321 320 318 319 318 319 321 322 322 322 322 324 326 326 327 328 327 327 327 326 326 326
302 302 302 301 300 299 299 300 301 298 298 299 306 307 308 309 308 310 310 311 311 311 311 312 311 309 314 318 319 319 320 319 320 320 320 319 323 322 322 322 321 321 320 320 321 322 322 322 322 323 324 325 325 325
300 300 300 300 300 300 301 301 299 297 297 304 306 308 309 308 311 310 310 311 313 312 314 316 316 311 314 319 319 320 319 319 319 321 321 324 322 322 322 322 321 319 319 319 319 319 319 319 319 320 320 321 321 321
300 301 300 301 301 301 301 301 296 296 303 306 308 307 309 309 309 309 311 312 313 314 316 317 316 315 317 318 317 318 319 319 320 320 322 324 322 322 321 317 317 318 318 319 320 320 320 320 320 320 320 319 319 320
301 300 301 302 302 301 301 301 296 300 303 307 308 311 309 309 309 310 311 312 312 313 315 318 317 317 318 318 317 318 318 319 319 322 323 321 321 319 318 318 317 317 318 319 321 321 320 320 319 319 320 320 320 319
297 299 301 301 302 302 302 301 296 300 303 306 307 309 309 311 311 312 312 313 314 315 317 317 317 318 318 317 317 317 317 319 321 322 321 321 320 320 318 317 318 318 319 320 320 319 320 320 320 320 320 319 319 320
296 299 300 301 302 302 301 297 298 300 305 307 309 309 310 311 313 314 314 315 316 317 319 317 317 317 317 318 317 317 319 321 320 320 320 319 318 317 318 318 318 318 319 318 320 318 318 318 319 318 318 318 317 318
299 302 302 301 301 299 297 298 300 302 306 307 309 309 310 311 312 314 315 316 316 317 316 317 316 318 318 318 318 320 319 319 319 319 317 317 317 318 318 317 317 317 318 319 319 318 318 319 319 317 317 318 317 317
300 301 301 300 298 298 298 300 302 306 307 308 309 309 311 313 314 313 313 313 313 315 316 316 317 317 318 318 318 319 319 318 318 317 316 317 318 318 317 317 318 318 318 318 317 317 317 317 316 316 316 316 316 316
300 300 297 296 298 302 302 303 302 306 309 310 311 312 313 313 311 311 312 313 313 314 316 317 317 318 318 318 318 318 317 316 314 315 316 317 316 315 315 316 317 318 318 317 317 316 316 316 316 316 315 315 316 315
298 296 299 302 303 304 305 306 306 308 310 311 312 312 312 313 312 311 313 313 313 314 316 316 317 317 317 317 316 316 316 315 313 314 316 315 315 316 316 317 317 317 317 317 316 316 316 315 315 314 315 315 315 315
299 298 300 302 304 306 307 307 309 310 311 312 313 313 313 313 313 312 311 313 314 314 314 315 315 315 314 314 314 314 314 312 314 316 315 315 316 316 316 316 316 316 316 316 316 315 315 314 315 315 315 315 315 314
297 302 304 304 306 306 308 308 310 311 312 312 311 312 313 312 311 310 312 313 313 312 313 313 312 312 313 314 313 313 313 314 315 315 315 316 316 316 316 316 316 316 315 315 314 313 313 314 312 311 312 312 314 314
301 302 305 306 306 308 308 309 310 310 310 310 311 312 312 312 310 311 313 311 311 311 311 312 313 315 314 313 314 314 314 315 315 315 316 316 316 316 316 316 316 316 314 314 314 313 313 313 313 313 313 313 313 312
302 302 304 303 306 309 310 309 309 310 310 310 310 310 310 310 311 311 310 312 312 312 313 314 313 313 314 314 314 315 315 316 316 316 315 315 314 314 313 313 314 314 313 313 312 312 313 312 312 311 311 311 312 312
305 306 306 309 309 310 310 310 309 310 310 310 309 310 311 311 311 312 313 313 313 313 315 314 313 313 314 314 315 316 315 316 317 315 315 315 313 313 314 314 313 314 315 314 314 313 313 312 312 312 312 312 311 312
305 307 307 306 308 308 309 309 309 309 309 309 310 311 312 312 312 312 312 313 313 314 313 313 314 314 314 314 316 316 317 317 315 314 315 315 315 314 314 314 313 313 312 314 315 314 314 313 313 313 313 313 312 313
307 305 307 306 306 307 308 309 309 310 310 310 312 313 313 313 314 313 311 312 313 313 313 314 314 314 314 316 317 316 316 316 315 316 315 315 315 315 315 315 313 310 312 311 311 313 313 313 313 312 312 312 311 311
307 307 306 307 306 307 308 309 311 311 311 312 312 312 312 312 312 312 311 312 313 313 315 315 314 315 316 315 315 317 317 316 315 315 315 314 314 313 313 312 312 312 312 311 310 310 311 312 311 312 311 311 311 312
308 307 307 307 308 309 310 310 310 311 311 311 310 310 311 312 313 312 313 313 313 314 314 315 314 315 315 315 315 315 315 315 315 314 313 312 312 312 312 311 311 311 312 311 312 312 311 310 311 311 311 312 312 312
309 307 307 308 310 312 312 312 312 312 312 313 312 312 313 313 313 312 313 314 313 313 313 314 316 316 316 315 315 315 315 314 314 313 314 314 313 312 312 312 312 312 312 312 312 312 312 312 312 312 312 312 312 311
311 310 311 312 312 313 313 313 313 313 314 313 314 314 314 314 314 314 312 313 316 317 317 316 316 316 316 315 314 313 313 315 316 314 311 312 314 314 313 312 312 313 313 313 313 312 312 312 311 311 310 310 310 309
314 314 315 315 314 315 314 315 315 315 315 315 316 316 315 315 316 316 315 315 317 317 317 316 315 315 313 312 312 312 312 314 313 311 311 311 311 314 315 313 314 313 313 312 311 311 310 310 309 309 309 309 308 308
Wind_Speed
29 24 21 18 15 13 10 6 4 1 4 4 4 4 5 5 6 6 4 4 4 2 7 4 4 5 6 5 5 8 4 2 5 2 5 3 8 3 3 3 1 5 5 5 1 4 6 6 4 4 5 4 5 4
32 26 24 20 17 15 11 9 6 2 3 4 3 3 5 5 5 5 3 4 4 3 5 8 11 12 11 7 7 6 3 3 6 3 2 4 3 3 3 6 1 3 5 2 6 5 4 5 5 4 3 2 4 4
34 31 23 22 19 17 13 11 8 4 2 3 3 2 4 4 4 3 3 4 5 3 7 4 1 3 2 3 5 4 2 5 4 4 5 3 2 4 3 3 1 3 2 1 2 5 3 3 3 5 3 2 2 7
35 31 25 24 20 17 14 11 9 5 3 3 2 2 3 3 3 3 2 2 2 4 5 4 1 1 1 1 3 6 1 5 7 4 2 3 4 3 2 2 4 6 2 1 2 4 1 3 3 4 5 3 5 6
35 31 27 25 21 17 15 12 10 7 5 3 2 2 2 2 2 2 3 2 3 1 5 2 2 1 2 3 4 4 1 1 2 3 1 3 5 3 0 3 3 1 4 5 4 5 4 3 2 4 4 5 7 9
32 30 32 25 21 19 15 13 11 8 6 5 3 3 2 1 0 2 1 2 2 4 3 2 1 2 1 4 5 3 1 1 2 2 3 2 4 4 3 3 5 2 2 2 3 4 2 3 3 4 5 5 6 8
31 34 30 25 20 18 16 13 11 9 7 6 4 3 2 2 3 2 0 3 1 4 2 4 4 4 3 5 5 3 1 1 3 2 5 5 3 3 4 7 3 4 2 2 1 2 5 3 3 4 4 5 6 5
16 16 24 26 22 17 15 13 11 9 7 5 4 4 3 2 3 1 5 2 2 1 1 3 2 5 4 8 8 4 4 3 4 3 4 7 3 5 5 8 1 3 5 4 2 3 3 1 3 3 3 4 5 5
21 21 24 20 23 18 14 13 11 9 6 5 4 3 3 4 2 4 5 3 2 2 3 3 3 3 3 7 3 4 4 4 2 5 5 4 6 6 0 3 6 7 6 9 8 7 6 5 2 3 5 5 4 4
23 22 20 18 17 17 15 13 12 10 7 7 6 2 4 4 5 6 0 1 2 4 4 5 1 3 3 5 4 2 4 4 4 5 3 5 7 3 1 1 3 6 9 8 9 11 11 8 5 4 3 1 2 3
15 17 17 17 16 16 16 15 13 10 10 9 4 2 5 8 4 2 3 4 4 4 6 5 6 4 3 4 4 4 2 3 3 4 4 5 5 9 4 3 4 6 8 7 3 1 1 1 1 3 2 1 0 2
20 20 18 17 17 18 16 15 13 14 9 9 7 10 8 3 3 4 3 3 5 2 5 4 4 8 2 3 4 4 3 2 4 7 3 4 4 6 6 4 4 5 6 6 5 3 3 2 2 3 3 4 5 6
24 21 20 20 19 18 16 14 14 14 13 12 3 4 4 4 2 5 7 4 3 6 4 4 5 4 5 5 4 3 4 4 1 4 3 2 8 8 6 4 3 4 6 6 6 6 6 6 7 7 8 8 9 9
26 26 24 23 21 20 17 14 15 16 7 3 5 2 5 5 5 3 3 2 6 3 3 2 4 4 3 4 3 4 1 3 3 3 1 4 8 7 4 2 4 6 8 8 9 9 9 10 11 12 13 13 14 15
26 27 27 26 24 20 17 15 16 17 2 3 4 3 6 3 2 2 2 3 4 3 3 5 3 2 4 3 3 2 3 4 2 1 2 8 7 5 1 4 7 8 9 8 8 8 9 10 12 13 14 14 15 16
27 22 29 30 25 24 19 18 15 10 2 3 4 4 5 5 5 5 6 5 3 3 5 2 3 4 3 2 3 4 2 3 1 4 7 8 5 2 4 7 8 9 8 8 9 9 10 11 12 12 12 11 12 12
24 19 32 30 27 25 21 17 11 3 3 3 5 6 2 1 2 2 2 2 3 4 4 4 4 3 4 4 4 2 1 4 6 7 5 3 2 5 6 7 8 10 7 7 8 9 7 9 10 11 10 9 9 9
9 32 36 34 32 25 19 14 4 4 5 6 6 8 4 2 3 2 2 4 4 4 3 2 1 3 3 2 1 3 6 7 5 3 1 3 5 5 5 6 7 5 5 6 7 9 7 7 8 8 8 7 8 10
28 35 31 34 28 18 8 8 3 4 6 5 6 4 3 3 2 1 2 2 4 4 3 3 3 3 1 2 1 3 4 2 1 2 5 5 5 6 6 6 4 2 2 3 5 6 4 5 7 7 7 7 8 9
31 31 32 22 13 6 5 6 7 4 5 4 4 3 2 1 1 1 1 0 3 4 5 3 2 2 2 3 3 3 2 2 3 5 5 4 6 6 6 6 4 3 3 4 4 6 3 3 4 5 5 6 5 7
25 23 14 7 3 3 4 4 5 3 2 3 5 5 3 3 3 1 1 2 5 3 3 1 0 2 3 2 1 1 3 4 4 4 5 9 7 6 2 2 3 2 3 3 2 3 3 6 6 5 5 7 11 13
13 10 3 4 1 0 1 3 2 2 3 4 6 6 5 7 5 3 3 5 3 1 2 1 1 2 3 3 5 5 6 7 6 6 6 5 2 1 2 2 3 2 1 1 3 6 6 9 9 8 15 14 13 13
9 5 3 2 1 0 2 1 2 2 2 2 1 3 3 2 1 1 4 3 2 3 2 2 2 4 4 5 5 5 4 4 5 5 6 2 3 2 5 6 6 8 11 12 14 15 15 16 16 20 18 14 13 13
1 2 2 1 1 1 2 2 1 0 2 2 1 2 2 2 2 2 2 2 2 2 2 3 3 3 2 2 0 2 1 3 3 6 8 9 10 9 9 10 10 10 12 12 10 10 8 9 8 6 8 8 8 10
2 0 1 2 2 2 2 3 1 1 1 1 1 1 1 1 1 0 2 2 2 3 4 4 4 3 2 1 1 2 5 4 6 11 11 11 14 13 13 12 11 11 9 9 8 7 6 7 7 8 10 10 10 10
2 1 1 1 2 1 1 2 2 1 1 1 1 1 1 2 1 3 2 1 3 3 4 5 5 5 5 4 5 3 5 8 10 14 14 10 9 9 9 8 7 5 5 5 5 5 5 5 5 5 5 5 6 6
1 1 0 1 1 1 0 1 1 2 2 3 2 3 2 2 2 2 2 3 3 3 3 5 6 7 9 12 6 7 9 11 11 10 10 8 7 6 3 2 4 5 3 2 1 0 0 1 2 3 3 5 5 5
1 1 1 1 1 2 1 2 2 2 2 2 3 3 2 2 1 1 1 2 2 3 2 5 8 14 19 11 8 8 8 8 9 7 5 5 4 3 2 1 3 2 2 4 4 3 1 3 1 1 3 5 6 5
2 2 2 2 2 3 4 3 2 3 2 2 1 1 2 2 4 3 2 2 4 4 7 13 15 17 14 14 11 7 6 6 6 3 3 5 7 6 5 4 4 3 2 2 4 5 4 1 3 1 3 4 1 3
2 4 2 2 3 3 4 5 3 2 4 7 8 7 9 7 3 3 5 6 7 10 12 18 22 12 12 9 7 5 4 4 3 1 2 5 5 4 5 5 4 3 2 0 3 4 3 1 2 3 4 6 6 7
3 7 3 4 3 2 1 2 1 1 2 1 2 2 2 1 3 7 10 14 21 20 16 9 4 6 7 6 5 3 3 3 4 6 8 5 4 4 4 4 3 3 4 5 7 6 5 5 4 5 5 6 6 4
2 3 1 1 1 8 10 8 7 7 7 4 4 7 8 9 8 9 20 23 13 9 6 4 2 2 3 3 4 4 6 6 5 2 2 3 11 11 7 7 5 4 3 3 4 4 3 3 5 5 4 4 3 3
3 5 4 4 5 3 3 2 4 5 7 8 7 3 5 7 9 8 12 12 9 6 4 3 3 4 5 3 1 2 2 2 5 5 4 2 2 5 8 7 3 1 2 2 3 2 3 4 4 4 2 2 2 2
Wind_Direction
209 213 219 226 222 221 225 227 240 305 346 3 2 13 23 22 34 51 32 15 43 311 289 266 272 290 313 341 339 351 256 55 11 292 294 185 273 97 249 49 254 224 224 176 253 228 144 16 199 263 37 76 53 115
209 209 216 221 219 216 218 224 231 241 327 345 359 4 18 20 25 47 32 354 329 262 272 261 271 266 260 276 307 358 23 353 36 311 357 276 217 209 341 185 139 184 354 41 348 51 44 12 22 25 2 7 56 110
209 207 210 215 213 211 211 222 229 226 272 325 346 349 9 14 15 29 22 334 340 294 274 263 187 298 294 258 227 294 63 14 40 32 322 312 297 294 215 91 227 125 358 49 240 82 48 27 27 27 40 23 47 126
208 207 209 212 208 206 210 217 227 226 248 290 321 328 350 1 4 15 35 334 14 294 279 119 60 349 61 40 173 207 348 353 354 337 311 299 297 336 40 19 299 32 248 45 213 131 235 167 60 36 57 81 103 113
205 203 209 203 201 201 206 210 222 228 238 267 283 302 322 333 1 48 82 77 52 80 330 314 287 155 359 133 129 131 208 339 348 296 237 324 304 295 220 282 241 25 31 276 13 19 296 81 75 77 117 101 89 95
209 205 204 191 194 198 202 209 219 225 233 253 266 276 277 298 333 109 232 336 1 8 292 259 323 164 98 155 159 141 84 302 267 285 295 254 278 298 270 261 66 54 68 2 51 39 67 127 115 99 105 115 109 105
210 198 186 182 189 192 198 207 219 227 238 243 254 258 253 219 185 184 252 205 1 6 301 267 191 182 170 186 202 202 330 274 265 251 234 263 240 277 264 262 175 159 111 60 79 84 102 99 107 155 126 114 111 93
184 176 192 191 185 189 197 204 217 218 221 232 234 235 233 205 187 182 213 221 352 352 266 276 191 192 187 204 201 208 234 240 212 279 235 242 207 234 255 255 352 311 305 272 258 251 352 24 137 125 118 112 111 94
192 199 185 186 186 180 201 206 211 211 215 213 201 185 143 146 150 212 201 238 279 187 294 252 264 138 182 218 227 197 236 244 142 248 222 230 213 220 207 300 282 310 313 290 293 286 268 243 203 144 127 113 114 86
181 177 176 188 179 189 206 209 202 198 196 179 157 151 171 183 168 149 4 199 219 210 228 259 247 209 226 184 198 224 227 260 231 195 149 231 242 128 173 326 342 339 332 306 275 272 256 242 209 171 157 132 68 47
178 174 173 174 192 200 195 191 187 181 172 158 167 158 170 147 133 188 214 223 173 221 206 235 247 271 176 228 201 206 234 232 250 147 226 197 238 166 166 101 53 37 37 41 55 33 310 251 228 209 181 160 35 13
182 180 184 192 190 184 179 179 178 174 176 172 140 122 142 183 187 225 203 183 223 225 170 223 183 215 185 215 229 194 256 241 255 134 230 231 103 132 154 122 80 53 42 44 49 47 38 22 336 316 307 307 319 325
190 190 186 181 178 176 170 169 174 171 154 143 130 158 189 170 178 220 181 191 201 174 172 191 188 191 189 225 239 237 239 231 142 217 219 73 136 148 138 120 70 26 5 355 348 339 328 318 313 308 301 299 298 295
188 182 178 177 167 170 168 168 166 160 144 165 168 169 222 183 232 190 214 104 89 147 204 216 176 202 169 204 246 253 259 273 243 234 156 122 148 138 110 53 6 343 336 330 326 322 317 310 302 297 294 292 290 288
184 186 185 185 182 183 182 175 168 166 155 196 202 216 203 231 184 184 226 220 199 248 234 163 175 210 181 246 213 284 244 254 283 30 116 136 148 142 66 341 330 328 325 323 324 328 327 323 319 312 304 296 291 289
189 185 192 190 190 180 183 175 165 169 246 217 225 222 173 204 171 185 192 213 211 202 159 172 181 189 167 234 227 230 108 293 8 96 112 127 133 94 331 325 323 321 315 308 308 312 321 318 310 307 309 312 301 292
171 194 178 183 179 171 163 159 158 224 234 224 207 199 257 237 212 163 203 197 195 200 197 203 203 165 163 217 209 211 284 115 151 118 106 84 356 319 314 315 313 310 310 306 306 307 312 327 334 332 320 303 312 312
157 162 150 158 154 144 155 157 188 224 236 221 207 164 181 253 259 236 203 214 215 211 229 265 289 222 235 257 134 123 140 127 111 103 24 330 318 307 299 304 308 312 296 288 299 300 301 321 330 331 334 330 320 313
137 131 138 146 129 132 136 187 215 235 216 180 205 200 221 208 206 298 299 245 216 230 256 234 239 243 156 30 83 140 132 105 66 341 320 320 315 304 289 278 257 312 331 351 352 334 334 329 327 322 317 320 322 326
130 132 136 140 145 146 148 181 208 247 207 178 192 210 198 151 237 286 338 42 209 221 217 230 345 47 67 91 79 83 56 3 346 329 314 317 326 306 301 253 242 278 311 328 1 11 12 1 355 344 356 15 13 10
124 133 126 134 161 145 164 175 191 214 183 206 176 160 170 157 172 209 219 323 233 244 231 254 145 115 106 115 84 325 323 329 320 299 297 309 324 324 334 196 261 269 267 308 354 351 28 41 29 50 74 73 76 75
145 126 98 92 78 311 193 195 174 159 217 160 158 180 161 171 165 167 299 245 248 234 241 254 238 239 272 286 275 282 282 297 300 298 305 300 256 180 142 141 123 103 105 95 110 99 84 69 48 91 103 90 85 79
129 103 47 16 353 73 116 161 227 174 191 106 133 166 115 121 123 274 240 234 254 227 217 228 258 274 279 290 284 277 280 272 288 291 287 214 210 168 147 132 116 111 105 102 107 101 87 77 81 89 85 80 78 67
131 19 337 340 324 61 151 178 111 136 112 158 158 137 109 50 331 235 260 254 219 217 214 224 238 252 244 325 246 221 260 265 198 155 128 122 124 105 102 100 92 93 110 109 104 105 97 82 95 85 76 76 69 66
316 62 246 255 223 206 185 144 139 108 116 66 299 179 116 318 262 266 259 266 228 214 211 219 226 217 215 291 138 120 144 146 141 152 132 120 114 108 105 104 107 108 106 98 92 86 82 80 85 86 84 76 67 60
266 125 302 58 113 247 118 156 144 175 200 221 203 121 207 266 249 250 238 231 225 229 226 206 204 210 197 172 168 133 126 127 126 131 134 133 123 113 112 117 117 116 107 111 103 98 94 98 94 82 72 63 45 33
303 101 73 61 63 25 210 174 168 250 225 212 179 174 220 240 244 227 246 254 235 229 214 194 180 179 163 160 149 115 123 123 130 140 144 140 127 135 112 72 102 94 72 78 98 210 155 360 335 344 354 357 338 329
281 150 164 146 232 211 266 258 225 227 219 187 201 211 234 219 15 119 248 203 184 144 221 218 176 158 154 156 138 136 133 137 145 140 162 178 195 202 211 145 171 185 51 77 54 24 302 247 201 100 346 348 11 39
218 184 211 225 203 232 225 239 241 216 265 255 29 281 248 248 262 275 291 204 158 173 123 132 151 150 153 157 155 160 157 157 151 156 236 223 190 188 185 163 153 137 152 79 51 36 56 111 162 92 352 335 341 344
198 195 214 234 213 231 243 224 261 255 248 250 232 247 276 277 271 218 180 162 155 138 137 117 140 142 141 154 159 168 177 176 189 241 61 91 111 142 173 188 186 174 173 128 353 337 324 355 321 312 312 313 305 306
220 189 224 239 268 263 245 226 209 270 77 69 168 220 270 174 128 166 148 138 134 123 124 124 122 148 157 166 173 196 197 221 230 241 231 216 194 175 172 181 202 239 271 287 301 312 323 303 298 304 319 323 329 333
239 226 245 285 354 97 116 104 98 93 89 100 88 115 92 87 84 137 158 160 170 178 179 179 172 180 212 228 241 235 235 243 263 248 121 240 226 221 224 224 261 270 282 303 310 319 317 313 316 319 319 321 328 331
32 34 40 78 120 140 124 130 116 118 128 124 138 116 58 69 108 152 185 189 201 213 231 249 258 279 267 251 151 19 333 225 184 154 130 101 46 183 208 226 210 202 280 293 309 312 334 340 334 329 320 331 340 346